Hovedside
METAR-TAF:

METAR-TAF

Lufthavner :

Ørsta-Volda, Norge

Ørsta/Volda lufthamn

breddegrad: 62-11N, lengdegrad: 006-04E, høyde over havet: 7 m

Gjeldene værobservasjon

Denne rapporten ble laget for 57 minutter siden, klokken 03:50 UTC
Vind 2 kt fra skiftende retning
Temperatur -1°C
Luftfuktighet 74%
Trykk 1004 hPa
Sikt 10 km eller mer
Få skyer i en høyde av 4500 ft

METAR: ENOV 250350Z VRB02KT 9999 FEW045 M01/M05 Q1004 RMK WIND 2175FT 26013G26KT

Tid: 06:47 (04:47 UTC)


TAF: fraværende

Værobservasjoner og værvarsel for over 4000 flyplasser (METAR- og TAF-rapporter).

Tilgjengelige stasjoner er representert av de røde og gule prikkene på kartet.

Hold musepekeren over prikken for å se navnet på stasjonen.

Klikk så for å se værobservasjoner og -varsler.

For å forandre kartet kan du klikke på den grønne knappen med svart kryss for å zoome inn, på den grønne knappen med strek for å zoome ut, eller på de grønne pilene for å se tilstøtende kart.


METAR-TAF: